Погода в Джикимде

Погода в Джикимде : погода сейчас, прогноз погоды и архив. Всё, что Вы хотите узнать о погоде в Джикимде!

Поиск расширенной информации на нашем сайте:

Другие новости

Новости СМИ2

Главная страница сайта

Новости сайта

02.10.2013

Напоминаем, что на нашем новом сайте вы можете получить высокодетализированные прогнозы погоды по пунктам России, СНГ и мира (включающие важные для авиации метеовеличины, такие как направление и скорость ветра, видимость, явления погоды, количество и форма облачности, нижняя и верхняя граница облачности), а также ознакомиться с разнообразными материалами по авиационной метеорологии и подборкой полезных ссылок на эту тему.

Сайт Метеоцентр.Азия посвящён разработке технологий оптимизации авиаметеорологического обслуживания, включая проектирование и перспективное создание нескольких автоматизированных авиаметеорологических систем:
- система выпуска высокодетальных прогностических карт явлений погоды для нижнего воздушного пространства по России и ближнему зарубежью;
- система верификации прогнозов TAF (выпускаемых синоптиками официальных АМСГ РФ и ближнего зарубежья) и AUTOTAF (выпускаемых сайтом Метеоцентр.Азия) - выявление ошибок, онлайн-сопоставление с фактической погодой METAR, автоматическое внесение коррективов в прогнозы при резком отклонении фактической погоды от прогноза, подсчёт оправдываемости прогнозов по элементам и в целом;
- система обработки, анализа и отображения авиаметеорологической информации для применения провайдерами метеорологической информации.

Рекомендуем: Check up в германии обследования check.

Погода в Джикимде - сегодня

Время (UTC), дата Ветер
(°,м/с) 
Видим.   Явления Облачность Т
(°С)
Тd
(°С)
f(%) Тe
(°С)
Pmin
(гПа)
dP
(гПа)
Po
(мм)
O2
(г/м3)
Тmin Tmax R s Состояние
почвы
03 21.03.17 050 (СВ) 20000 м  {снег}  10/8 600 м верхняя 
[Cu Sc|Ci fib]
-2.2 -5.8 76 -2  1027.7  -0.9  754  307           
06 21.03.17 360 (С) 2{10}  20000 м  {снег}  9/9 600 м 
[Cu med, cong]
+2.7 -6.2 52 +2  1026.2  -1.1  753  301           
09 21.03.17 320 (СЗ) 2{10}  20000 м    8/8 600 м 
[Cu med, cong]
+3 -7.9 45 +2  1024.5  -1.7  752  300           
12 21.03.17 тихо ()   20000 м    6/0 средняя 
[Ac lent]
-2.6 -9.6 59 -3  1025.6  0.6  752  307    +3.3  0.0     
15 21.03.17 тихо ()   20000 м    10/0 верхняя 
[Cs]
-3.2 -8.3 68 -3  1026  0.4  753  308           
18 21.03.17 тихо ()   20000 м    10/0 верхняя 
[Cs]
-3.4 -7.3 74 -3  1026.5  0.5  753  308           
21 21.03.17 тихо ()   20000 м    10/10 600 м кучево-дожд. 
[Cb cap]
-7.4 -12.8 65 -7  1026.5  -0.4  753  313           
00 22.03.17 310 (СЗ) 20000 м    9/8 600 м кучево-дожд., средняя 
[Cb cap|Ac lent]
-2.4 -6 76 -2  1027.1  753  307  -7.4      45  равномерный
мокрый или
старый снег
100% 
03 22.03.17 270 (З) 20000 м  слаб. ливневой снег  9/9 600 м кучево-дожд. 
[Cb cap]
-0.9 -5.8 69 -2  1027.8  0.8  754  305           
06 22.03.17 270 (З) 2{11}  20000 м  {ливн. осадки}  10/8 600 м кучево-дожд., верхняя 
[Cb cap|Cs]
-0.8 -9 54 -2  1027.9  0.1  754  306           
09 22.03.17 270 (З) 20000 м    9/9 600 м кучево-дожд. 
[Cb cap]
-0.4 -7.9 57 -1  1027.8  -0.1  754  305           
12 22.03.17 320 (СЗ) 20000 м    8/0 верхняя 
[Cs]
-4.6 -10.3 64 -4  1028.2  0.1  754  310    +0  0.0     
15 22.03.17 320 (СЗ) 20000 м    10/10 600 м кучево-дожд. 
[Cb cap]
-7 -11.3 71 -7  1029.6  1.2  755  313           
18 22.03.17 320 (СЗ) 20000 м    10/10 600 м кучево-дожд. 
[Cb cap]
-8.4 -12.1 75 -8  1030.9  756  315           
21 22.03.17 тихо ()   20000 м    10/10 600 м кучево-дожд. 
[Cb cap]
-8.7 -11.6 79 -9  1030.3  -0.5  755  316           
00 23.03.17 250 (З) 20000 м  слаб. снег  10/0 средняя, верхняя 
[Ac trans|Cs]
-7.9 -10.6 81 -8  1030.2  0.1  755  315  -9.4    0.0  45  равномерный
сухой снег
100% 
03 23.03.17 250 (З) 20000 м  в посл. час снег  10/0 верхняя 
[Cs]
-1.9 -7.6 65 -1  1029.2  -0.5  755  307           
06 23.03.17 220 (ЮЗ) 20000 м  {снег}  9/8 600 м верхняя 
[Cu med, cong|Cs]
+1.2 -6.2 58 +1  1027.2  -1.8  754  303           
09 23.03.17 тихо ()   20000 м    9/4 600 м верхняя 
[Cu med, cong|Cs]
+0.6 -4.8 67 +1  1026  -1.2  753  303           
12 23.03.17 210 (ЮЗ) 20000 м    4/0 верхняя 
[Cs]
-2.9 -6.3 77 -2  1026.1  -0.2  753  307    +1.4  0.2     
15 23.03.17 тихо ()   20000 м    10/0 верхняя 
[Cs]
-5.7 -7.9 84 -6  1026.3  753  311           
18 23.03.17 тихо ()   20000 м    10/0 верхняя 
[Cs]
-6.8 -8.8 86 -7  1026.4  -0.1  753  312           
21 23.03.17 тихо ()   20000 м    3/0 верхняя 
[Ci fib]
-12 -13.3 90 -12  1025.9  -0.8  752  318           
00 24.03.17 тихо ()   20000 м    8/8 600 м 
[Sc diur, vesp]
-11.5 -12.1 95 -12  1025.5  -0.3  752  317  -14.7      44  равномерный
сухой снег
100% 
03 24.03.17 270 (З) 20000 м    8/3 600 м средняя 
[Cu med, cong|Ac lent]
+0.1 -6.3 62 +1  1022.6  -1.9  750  303           
Время (UTC), дата Ветер
(°,м/с) 
Видим.   Явления Облачность Т
(°С)
Тd
(°С)
f(%) Тe
(°С)
Pmin
(гПа)
dP
(гПа)
Po
(мм)
O2
(г/м3)
Тmin Tmax R s Состояние
почвы

Для получения пояснительной информации подведите курсор к названию столбца.

ПОГОДА в Джикимде - архив

Всё, что Вы хотите узнать о погоде в Джикимде - удобно и подробно!

Выберите нужную дату (начиная с 1 января 2015* года) и нажмите кнопку "Найти".
Будут отображены архивные сводки погоды по пункту Джикимда, начиная с указанной даты.


Отображать данные в формате CSV (для использования в таблицах Excel)


Внимание! Наш архив погоды предназначен исключительно для личного некоммерческого использования в познавательных целях. Если Вам необходимы официальные справки о состоянии погоды (для производственных, юридических, коммерческих и т.п. целей), обращайтесь в органы Росгидромета.

*Примечание: данная дата относится к архиву по метеостанциям СССР (Россия, СНГ, Балтия).
Архив по метеостанциям Зарубежной Европы и Азии (кроме Китая) хранится 10 дней, по другим регионам земного шара (Китай, Африка, Америка, Австралия, Океания) - 1 день.

Джикимда - район местоположения метеостанции


Название, широта, долгота, высота метеостанции:
Джикимда 59°ш. 121.8°д. 170 м над ур. моря [Российская Федерация]

Дополнительная информация

В oтличие oт бoльшинства пoгoдных сайтoв мы публикуем пoдрoбную метеoинфoрмацию в детальнoм прoфессиoнальнoм фoрмате.

Характеристики температуры и влажнoсти вoздуха измеряются на высoте 2 м в тени вдали oт зданий и деревьев.
Скoрoсть ветра измеряется на высoте 10 м (на урoвне рoста челoвека скoрoсть ветра ниже в 1.5-2 раза). Если метеoстанция нахoдится в гoрoде или в лесу, тo скoрoсть ветра занижена на 2-4 м/с пo сравнению с oткрытым местoм. Скoрoсть ветра над акватoриями крупных рек и oзёр, а также на вершинах хoлмoв на 2-5 м/с выше, чем в oбычных услoвиях.
Атмoсфернoе давление в разных тoчках местнoсти мoжет значительнo oтличаться oт давления на метеoстанции, в зависимoсти oт услoвий рельефа (при пoдъёме на 10 м давление пoнижается примернo на 1 мм рт.ст.).